Back to catalog

STARLINK-3310

AliveCommunicationsVLEO
NORAD 50835·PAYLOAD·🇺🇸 United States

Launched Jan 6, 2022 from Cape Canaveral Space Force Station

Loading…

Next Passes (next 24 hours)

TLE

FreshSource: CelesTrak SupGP

Epoch: Sep 14, 2026, 13:20 UTC

1 50835C 22001AJ  26257.55604167 -.00017844  00000+0 -99453-3 0  2577
2 50835  53.2145  49.1751 0002188 115.4372 304.6095 15.13104358    11

Track STARLINK-3310 in real time with AllMySat

Download on the App Store